Location: Cedar Brake
(32.2526°N, 97.8459°W)
Time: 07:48:48
(UTC+00:00)

DELTA 2 R/B (1) - Pass Details

Date: 22 April 2026
Orbit: 787 x 800 km, 39.6° (Epoch: 15 May)

Event Time Altitude Azimuth Distance (km) Brightness Sun altitude
Exits shadow 09:15:54 51° 96° (E) 981 4.1 -30.4°
Drops below altitude 10° 09:20:10 10° 69° (ENE) 2,341 6.8 -29.7°
Sets 09:22:40 0° 67° (ENE) 3,272 7.9 -29.3°
